Location: Godzisko
(49.9648°N, 19.4576°E)
Time: 01:15:01
(UTC+00:00)

NOSS 3-4 (A) - Pass Details

Date: 20 April 2021
Orbit: 872 x 1340 km, 63.4° (Epoch: 06 May)

Event Time Altitude Azimuth Distance (km) Brightness Sun altitude
Rises 02:31:50 0° 314° (NW) 3,838 6.5 -10.6°
Reaches altitude 10° 02:34:33 10° 306° (NW) 2,949 5.8 -10.2°
Maximum altitude 02:40:55 37° 242° (WSW) 1,736 4.3 -9.3°
Drops below altitude 10° 02:47:54 10° 178° (S) 3,233 5.9 -8.4°
Sets 02:51:01 0° 171° (S) 4,249 6.6 -7.9°
